EW9688 Weather Reports


Display with metric or nautical units.
time (UTC)temp
F
wind
direction
speed
MPH
gust
MPH
rain 1hr
in
rain 24hr
in
rain mn
in
humidity
%
barometer
mb
20260510200220 62 26 7.0 9.0 0.00 0.00 0.00 41 1022.7
20260510195241 62 16 3.0 4.0 0.00 0.00 0.00 41 1022.8
20260510194220 62 187 2.0 5.0 0.00 0.00 0.00 41 1022.8
20260510193220 62 286 3.0 4.0 0.00 0.00 0.00 41 1022.8
20260510192220 61 353 5.0 9.0 0.00 0.00 0.00 42 1022.8
20260510191300 61 168 4.0 5.0 0.00 0.00 0.00 44 1023.0
20260510190221 61 29 3.0 4.0 0.00 0.00 0.00 41 1023.1
20260510185241 61 217 2.0 3.0 0.00 0.00 0.00 41 1023.2
20260510184241 60 142 2.0 3.0 0.00 0.00 0.00 41 1023.3
20260510183224 60 182 2.0 3.0 0.00 0.00 0.00 43 1023.4
20260510182224 60 331 3.0 4.0 0.00 0.00 0.00 45 1023.5
20260510181221 59 174 2.0 3.0 0.00 0.00 0.00 46 1023.5
20260510180221 59 343 3.0 5.0 0.00 0.00 0.00 48 1023.5
20260510175222 58 142 3.0 4.0 0.00 0.00 0.00 50 1023.6
20260510174222 58 194 1.0 3.0 0.00 0.00 0.00 49 1023.7
20260510173242 57 164 4.0 6.0 0.00 0.00 0.00 53 1023.6
20260510172222 58 161 3.0 7.0 0.00 0.00 0.00 53 1023.7
20260510171217 57 71 3.0 5.0 0.00 0.00 0.00 54 1023.7
20260510170256 56 26 3.0 7.0 0.00 0.00 0.00 58 1023.7
20260510165216 56 126 5.0 7.0 0.00 0.00 0.00 57 1023.8
20260510164223 56 345 2.0 3.0 0.00 0.00 0.00 58 1023.8
20260510163243 56 19 2.0 4.0 0.00 0.00 0.00 61 1023.8
20260510162217 55 53 2.0 4.0 0.00 0.00 0.00 61 1023.9
20260510161217 54 171 3.0 5.0 0.00 0.00 0.00 68 1023.9
20260510160224 54 11 5.0 6.0 0.00 0.00 0.00 65 1023.8
20260510155244 53 140 5.0 9.0 0.00 0.00 0.00 70 1023.7
20260510154238 53 149 5.0 7.0 0.00 0.00 0.00 70 1023.7
20260510153218 52 144 5.0 7.0 0.00 0.00 0.00 72 1023.7
20260510152218 52 166 5.0 8.0 0.00 0.00 0.00 71 1023.6
20260510151218 51 149 3.0 5.0 0.00 0.00 0.00 74 1023.6
20260510150218 51 184 5.0 8.0 0.00 0.00 0.00 71 1023.5
20260510145219 50 187 4.0 7.0 0.00 0.00 0.00 74 1023.5
20260510144319 50 174 4.0 5.0 0.00 0.00 0.00 77 1023.6
20260510143239 49 172 3.0 5.0 0.00 0.00 0.00 79 1023.6
20260510142239 48 169 2.0 4.0 0.00 0.00 0.00 80 1023.6
20260510141219 48 148 4.0 7.0 0.00 0.00 0.00 82 1023.6
20260510140240 47 147 6.0 8.0 0.00 0.00 0.00 84 1023.7
20260510135239 46 157 7.0 9.0 0.00 0.00 0.00 85 1023.8
20260510134217 46 187 6.0 9.0 0.00 0.00 0.00 86 1023.7
20260510133217 45 290 5.0 7.0 0.00 0.00 0.00 87 1023.8
20260510132220 45 266 6.0 8.0 0.00 0.00 0.00 88 1023.9
20260510131220 44 319 1.0 2.0 0.00 0.00 0.00 88 1024.0
20260510130230 44 5 2.0 2.0 0.00 0.00 0.00 90 1024.0
20260510125220 44 347 2.0 3.0 0.00 0.00 0.00 90 1024.0
20260510124221 44 37 4.0 6.0 0.00 0.00 0.00 90 1024.0
20260510123221 44 15 3.0 6.0 0.00 0.00 0.00 90 1024.0
20260510122230 44 10 3.0 3.0 0.00 0.00 0.00 90 1024.0
20260510121221 44 30 3.0 5.0 0.00 0.00 0.00 89 1023.9
20260510120221 44 23 4.0 6.0 0.00 0.00 0.00 89 1023.9
20260510115232 45 23 5.0 6.0 0.00 0.00 0.00 88 1023.7
20260510114231 45 34 3.0 4.0 0.00 0.00 0.00 87 1023.6
20260510113241 46 337 3.0 3.0 0.00 0.00 0.00 84 1023.5
20260510112242 46 347 3.0 4.0 0.00 0.00 0.00 83 1023.4
20260510111240 46 338 3.0 3.0 0.00 0.00 0.00 83 1023.3
20260510110241 46 347 3.0 4.0 0.00 0.00 0.00 83 1023.3
20260510105232 46 6 3.0 3.0 0.00 0.00 0.00 83 1023.2
20260510104231 46 2 3.0 4.0 0.00 0.00 0.00 83 1023.2
20260510103232 46 338 3.0 4.0 0.00 0.00 0.00 82 1023.1
20260510102313 46 340 3.0 4.0 0.00 0.00 0.00 81 1022.9
20260510101232 46 340 3.0 3.0 0.00 0.00 0.00 81 1022.9
20260510100224 46 348 3.0 6.0 0.00 0.00 0.00 81 1022.8
20260510095218 46 351 2.0 3.0 0.00 0.00 0.00 82 1022.8
20260510094218 46 329 3.0 4.0 0.00 0.00 0.00 82 1022.8
20260510093217 46 338 3.0 3.0 0.00 0.00 0.00 82 1022.7
20260510092218 46 334 3.0 3.0 0.00 0.00 0.00 82 1022.7
20260510091238 46 336 2.0 2.0 0.00 0.00 0.00 82 1022.5
20260510090218 46 318 1.0 2.0 0.00 0.00 0.00 83 1022.4
20260510085228 46 290 2.0 6.0 0.00 0.00 0.00 83 1022.2
20260510084228 46 313 4.0 6.0 0.00 0.00 0.00 83 1022.1
20260510083228 46 316 3.0 4.0 0.00 0.00 0.00 83 1022.2
20260510082229 46 321 2.0 2.0 0.00 0.00 0.00 83 1022.1
20260510081228 46 327 3.0 6.0 0.00 0.00 0.00 82 1022.1
20260510080228 46 153 5.0 9.0 0.00 0.00 0.00 79 1022.0
20260510075249 46 137 4.0 8.0 0.00 0.00 0.00 81 1022.0
20260510074217 46 224 5.0 9.0 0.00 0.00 0.00 81 1022.2
20260510073229 46 283 5.0 8.0 0.00 0.00 0.00 81 1022.3
20260510072228 46 336 3.0 3.0 0.00 0.00 0.00 79 1022.4
20260510071229 46 335 3.0 3.0 0.00 0.00 0.00 81 1022.4
20260510070229 46 316 2.0 4.0 0.00 0.00 0.00 82 1022.4
20260510065229 46 326 2.0 3.0 0.00 0.00 0.00 81 1022.5
20260510064229 47 357 3.0 3.0 0.00 0.00 0.00 82 1022.5
20260510063230 47 346 3.0 4.0 0.00 0.00 0.00 83 1022.5
20260510062230 47 10 3.0 3.0 0.00 0.00 0.00 82 1022.6
20260510061250 47 357 4.0 5.0 0.00 0.00 0.00 82 1022.6
20260510060221 47 355 3.0 4.0 0.00 0.00 0.00 80 1022.4
20260510055221 47 9 3.0 3.0 0.00 0.00 0.00 79 1022.4
20260510054221 48 345 2.0 3.0 0.00 0.00 0.00 78 1022.4
20260510053302 48 343 2.0 3.0 0.00 0.00 0.00 78 1022.5
20260510052221 48 14 2.0 3.0 0.00 0.00 0.00 76 1022.5
20260510051222 48 341 2.0 2.0 0.00 0.00 0.00 77 1022.4
20260510050222 48 69 2.0 3.0 0.00 0.00 0.00 76 1022.4
20260510045222 48 3 2.0 2.0 0.00 0.00 0.00 75 1022.7
20260510044222 48 344 2.0 2.0 0.00 0.00 0.00 75 1022.7
20260510043222 48 330 1.0 2.0 0.00 0.00 0.00 75 1022.6
20260510042222 48 334 2.0 2.0 0.00 0.00 0.00 75 1022.3
20260510041243 48 27 2.0 3.0 0.00 0.00 0.00 74 1022.6
20260510040223 48 335 1.0 2.0 0.00 0.00 0.00 73 1022.7
20260510035243 48 11 2.0 2.0 0.00 0.00 0.00 73 1022.8
20260510034223 48 28 1.0 2.0 0.00 0.00 0.00 74 1022.5
20260510033223 48 17 2.0 5.0 0.00 0.00 0.00 74 1022.3
20260510032243 48 3 2.0 2.0 0.00 0.00 0.00 75 1022.4
20260510031218 48 9 3.0 7.0 0.00 0.00 0.00 74 1022.2
20260510030238 48 11 2.0 4.0 0.00 0.00 0.00 75 1021.8
20260510025240 48 14 3.0 6.0 0.00 0.00 0.00 74 1021.1
20260510024220 49 17 5.0 10.0 0.00 0.00 0.00 77 1020.6
20260510023221 49 20 4.0 7.0 0.00 0.00 0.00 77 1020.0
20260510022220 49 15 4.0 6.0 0.00 0.00 0.00 78 1019.9
20260510021220 50 18 3.0 6.0 0.00 0.00 0.00 76 1019.7
20260510020242 50 20 4.0 9.0 0.00 0.00 0.00 75 1019.5
20260510015220 50 355 2.0 4.0 0.00 0.00 0.00 74 1019.1
20260510014221 51 0 5.0 7.0 0.00 0.00 0.00 73 1018.8
20260510013221 51 351 4.0 6.0 0.00 0.00 0.00 72 1018.4
20260510012222 52 351 3.0 4.0 0.00 0.00 0.00 70 1018.0
20260510011231 53 359 5.0 9.0 0.00 0.00 0.00 68 1017.4
20260510010218 54 359 6.0 10.0 0.00 0.00 0.00 66 1017.0
20260510005219 58 22 5.0 9.0 0.00 0.00 0.00 61 1016.5
20260510004222 66 11 4.0 6.0 0.00 0.00 0.00 48 1015.8
20260510003222 70 243 2.0 3.0 0.00 0.00 0.00 27 1014.4
20260510002221 71 0 5.0 6.0 0.00 0.00 0.00 27 1014.1
20260510001226 71 299 1.0 1.0 0.00 0.00 0.00 24 1013.9
20260510000221 70 28 3.0 4.0 0.00 0.00 0.00 24 1013.8
20260509235221 70 142 2.0 3.0 0.00 0.00 0.00 24 1013.7
20260509234221 70 120 3.0 4.0 0.00 0.00 0.00 23 1013.6
20260509233301 70 334 4.0 6.0 0.00 0.00 0.00 23 1013.6
20260509232221 71 18 5.0 6.0 0.00 0.00 0.00 23 1013.4
20260509231221 71 202 3.0 5.0 0.00 0.00 0.00 23 1013.2
20260509230221 71 141 4.0 8.0 0.00 0.00 0.00 24 1013.2
20260509225221 72 136 4.0 6.0 0.00 0.00 0.00 24 1013.2
20260509224259 72 51 4.0 9.0 0.00 0.00 0.00 23 1013.1
20260509223222 73 107 3.0 6.0 0.00 0.00 0.00 20 1013.0
20260509222224 73 161 2.0 4.0 0.00 0.00 0.00 21 1012.8
20260509221241 74 21 8.0 10.0 0.00 0.00 0.00 22 1012.8
20260509220224 74 23 3.0 5.0 0.00 0.00 0.00 20 1012.9
20260509215224 73 8 7.0 9.0 0.00 0.00 0.00 21 1012.8
20260509214224 73 20 6.0 8.0 0.00 0.00 0.00 20 1012.8
20260509213230 72 24 5.0 7.0 0.00 0.00 0.00 21 1012.9
20260509212217 70 207 2.0 5.0 0.00 0.00 0.00 22 1013.0
20260509211217 70 27 6.0 9.0 0.00 0.00 0.00 24 1013.0
20260509210237 69 29 6.0 9.0 0.00 0.00 0.00 22 1013.0
20260509205217 69 24 9.0 12.0 0.00 0.00 0.00 25 1013.1
20260509204224 69 27 5.0 8.0 0.00 0.00 0.00 25 1013.4
20260509203237 69 11 5.0 10.0 0.00 0.00 0.00 23 1013.1
20260509202218 69 22 6.0 12.0 0.00 0.00 0.00 26 1013.3
20260509201218 70 17 3.0 4.0 0.00 0.00 0.00 23 1013.6